Location: Unspecified
(42.3650°N, 71.1030°W)
Time: 14:36:39
(UTC+00:00)

Meteor 2-6 Rocket - Pass Details

Date: 02 March 2024
Orbit: 805 x 914 km, 81.3° (Epoch: 18 April)

Event Time Altitude Azimuth Distance (km) Brightness Sun altitude
Rises 23:14:53 0° 349° (N) 3,518 7.5 -7.9°
Reaches altitude 10° 23:17:20 10° 350° (N) 2,585 6.9 -8.4°
Maximum altitude 23:23:16 88° 265° (W) 917 4.4 -9.5°
Drops below altitude 10° 23:29:14 10° 173° (S) 2,595 6.7 -10.6°
Sets 23:31:41 0° 173° (S) 3,532 7.3 -11.0°
